www.pogodaiklimat.ru

Погода и климат >> Архив погоды >> Бангладеш >> Стримангал


ПОГОДА в Стримангале

  • Прогноз погоды в Стримангале
  • Монитор погоды в Стримангале

АРХИВ ПОГОДЫ в Стримангале

Время (UTC), дата Ветер
(напр.,м/с)
 
Видим.   Явления Облачность Т
(С)
Тd
(С)
f
(%)
Тe
(С)
Тes
(С)
Комфортность P
(гПа)
Po
(гПа)
Тmin
(С)
Tmax
(С)
R
(мм)
R24
(мм)
S
(см)
06 12.06 В 1 6000 м 5/4 480 м
[Sc diur, vesp As op]
+34.8 +27.0 64 +53 +66 опасность
перегрева
1001.6 999.2
18 12.06 штиль 0 5000 м 5/4 480 м
[Cb calv As op]
+29.0 +28.0 94 +48 +48 опасность
перегрева
1000.7 998.2
00 13.06 ЮВ 1 6000 м 9/4 480 м
[Sc As trans]
+26.5 +25.0 91 +38 +38 очень
душно
1000.5 998.0
12 13.06 Ю 1 5000 м 9/6 450 м
[Cb calv Ac As]
+30.8 +27.0 80 +48 +48 опасность
перегрева
997.2 994.8 +36.1
18 13.06 ЮВ 1 5000 м 9/5 480 м
[Cb calv As op]
+28.7 +27.0 91 +45 +45 опасность
перегрева
1000.0 997.5
00 14.06 Ю 1 4000 м гроза, ливневой дождь 10/8 240 м
[Cb cap As op]
+25.1 +25.0 99 +36 +36 очень
душно
1000.4 997.9 97
06 14.06 ЮВ 1 5000 м слаб. дождь {гроза} 10/8 240 м
[Frnb As op]
+26.0 +26.0 100 +39 +40 очень
душно
1001.2 998.7 16
12 14.06 ЮВ 1 6000 м {дождь} 8/5 480 м
[Sc diur, vesp Ac As]
+29.2 +26.0 83 +44 +44 опасность
перегрева
998.5 996.0 +30.0 0.0
15 14.06 штиль 0 5000 м 6/4 480 м
[Sc diur, vesp Ac trans]
+27.0 +26.0 94 +40 +40 очень
душно
1000.4 997.9
18 14.06 В 1 5000 м 10/6 300 м
[Cb calv As op]
+27.5 +27.0 97 +43 +43 опасность
перегрева
1001.6 999.1
00 15.06 штиль 0 6000 м 10/6 300 м
[Cb calv As op]
+27.0 +25.0 89 +39 +39 очень
душно
1000.3 997.8
03 15.06 Ю 1 6000 м 10/6 300 м
[Cb calv As op]
+29.2 +26.0 83 +44 +45 опасность
перегрева
1001.8 999.0 +25.4
06 15.06 З 1 6000 м {гроза} 10/6 360 м
[Cb calv As op]
+26.0 +24.0 89 +36 +38 очень
душно
1001.6 999.1
09 15.06 Ю 1 6000 м {гроза} 10/6 360 м
[Cb calv As op]
+26.4 +24.0 87 +37 +38 очень
душно
999.8 997.3
12 15.06 В 1 5000 м {гроза} 10/6 450 м
[Cb calv As op]
+27.6 +26.0 91 +41 +41 опасность
перегрева
999.0 996.5 +29.6 0.6
15 15.06 В 1 5000 м 5/3 480 м
[Sc As trans]
+26.3 +26.0 98 +39 +39 очень
душно
1001.5 999.0
18 15.06 штиль 0 5000 м 9/5 480 м
[Sc diur, vesp Ac As]
+25.6 +25.0 96 +36 +36 очень
душно
1002.0 999.5
00 16.06 ЮВ 1 6000 м 3/1 480 м
[Sc Ac trans]
+25.2 +24.0 93 +35 +35 очень
душно
1001.7 999.2
03 16.06 ЮВ 1 6000 м 3/3 480 м
[Sc diur, vesp]
+30.0 +25.0 75 +43 +54 опасность
перегрева
1001.3 998.9 +24.3
06 16.06 Ю 1 6000 м 9/6 480 м
[Sc diur, vesp As trans]
+32.4 +26.0 69 +48 +54 опасность
перегрева
1001.0 998.6
09 16.06 штиль 0 6000 м гроза без осадков 10/8 300 м
[Cb calv As op]
+32.5 +27.0 73 +51 +51 опасность
перегрева
999.5 997.1
12 16.06 ЮВ 1 6000 м {гроза} 5/4 480 м
[Sc diur, vesp As op]
+32.0 +27.0 75 +50 +50 опасность
перегрева
998.9 996.5 +34.0
15 16.06 В 1 5000 м 3/3 480 м
[Sc]
+29.2 +26.0 83 +44 +44 опасность
перегрева
1000.5 998.1
18 16.06 штиль 0 5000 м ясно +28.1 +26.0 88 +42 +42 опасность
перегрева
1000.8 998.4
00 17.06 Ю 1 6000 м {дождь} 4/3 480 м
[Sc diur, vesp As op]
+25.2 +24.0 93 +35 +35 очень
душно
1001.3 998.8 2
03 17.06 С 1 6000 м 9/8 450 м
[Cb calv Ac As]
+29.7 +27.0 85 +47 +49 опасность
перегрева
1002.3 999.8 +24.6
06 17.06 Ю 1 6000 м 10/6 450 м
[Cb calv As trans]
+32.5 +26.0 69 +48 +53 опасность
перегрева
1001.7 999.2
09 17.06 С 1 7000 м 4/4 480 м
[Sc diur, vesp]
+32.6 +29.0 81 +56 +65 опасность
перегрева
999.4 997.0
12 17.06 штиль 0 6000 м 8/6 450 м
[Cb calv Ac As]
+31.0 +28.0 84 +51 +51 опасность
перегрева
998.9 996.5 +34.4
15 17.06 штиль 0 5000 м 9/6 450 м
[Cb calv Ac As]
+29.2 +28.0 93 +48 +48 опасность
перегрева
1000.9 998.4

 

Местоположение метеостанции Стримангал (Бангладеш): широта 24.30 долгота 91.73 высота над уровнем моря 23 м.

В архиве по умолчанию представлена погода в Стримангале за последнюю неделю. Архивные данные за месяц целиком и за предыдущие месяцы, начиная с января 2011 года, Вы можете получить, выбрав интересующий диапазон дат из раскрывающегося списка и нажав кнопку "Ввод!".


*Определитесь, кто Вы:
робот инопланетянин человек

Внимание! Время в таблицах - всемирное. Для получения местного времени необходимо прибавить поправку, которая равна 6.5 ч.

Смотрите также архив погоды в соседних городах и на ближайших метеорологических станциях:

Погода в Кайлашахаре (Трипура, Индия) (27 км)
Погода в Агартале (Трипура, Индия) (68 км)
Погода в Силхете (Бангладеш) (68 км)
Погода в Никли (Бангладеш) (81 км)
Погода в Ленгпи (Мизорам, Индия) (104 км)
Погода в Черапунджи (Мегхалая, Индия) (106 км)
Погода в Комилле (Бангладеш) (112 км)
Погода в Аиджале (Мизорам, Индия) (119 км)
Погода в Силчаре (Ассам, Индия) (119 км)
Погода в Нетрокона-Садаре (Бангладеш) (121 км)

Пояснения к столбцам:

Ветер - указаны скорость ветра в м/с - средняя за 10 мин, порывы в срок и между сроками (в фигурных скобках) и направление, откуда дует ветер: С - северный, СВ - северо-восточный, В - восточный, ЮВ - юго-восточный, Ю - южный, ЮЗ - юго-западный, З - западный, СЗ - северо-западный.
Видимость - горизонтальная дальность видимости в метрах или километрах. При видимости от 1 до 10 км при отсутствии осадков обычно наблюдается дымка, при ухудшении видимости до 1 км и менее - туман. В сухую погоду видимость может ухудшаться дымом, пылью или мглою.
Явления - указаны атмосферные явления, наблюдавшиеся в срок или в последний час перед сроком; фигурными скобками обозначены явления, наблюдавшиеся между сроками (за 1-3 часа до срока); квадратными скобками обозначены град или гололедные отложения с указанием их диаметра в мм.
Облачность - указаны через наклонную черту общая и нижняя облачность в баллах и высота нижней границы облаков в метрах; квадратными скобками обозначены формы облаков: Ci - перистые, Cs - перисто-слоистые, Cc - перисто-кучевые, Ac - высококучевые, As - высокослоистые, Sc - слоисто-кучевые, Ns - слоисто-дождевые, Cu - кучевые, Cb - кучево-дождевые. Подробнее классификацию облаков см. в Атласе облаков (PDF).
T - Температура воздуха - температура, измеренная на высоте 2 м над землей.
Td - Температура точки росы - температура, при понижении до которой содержащийся в воздухе водяной пар достигнет насыщения.
f - Относительная влажность воздуха - влажноcть воздуха, измеренная на высоте 2 м над землей.
Te - Эффективная температура - температура, которую ощущает одетый по сезону человек в тени. Характеристика душности погоды. При расчете учитывается влияние влажности воздуха и скорости ветра на теплоощущения человека.
Tes - Эффективная температура на солнце - температура, которую ощущает человек, с поправкой на солнечный нагрев. Характеристика знойности погоды. Зависит от высоты солнца над горизонтом, облачности и скорости ветра. Ночью, в пасмурную погоду, а также при ветре 12 м/с и более поправка равна нулю.
P - Атмосферное давление - приведенное к уровню моря атмосферное давление.
Po - Атмосферное давление - измеренное на уровне метеостанции атмосферное давление.
Tmin - Минимальная температура - минимум температуры воздуха на высоте 2 м над землей.
Tmax - Максимальная температура - максимум температуры воздуха на высоте 2 м над землей.
R - Количество осадков - Количество выпавших осадков за период времени, мм. При наведении курсора мыши на число - период времени, за который выпало указанное количество осадков.
R24 - Количество осадков - Количество выпавших осадков за 24 часа, мм.
S - Снежный покров - Высота снежного покрова, см. При наведении курсора мыши на число - состояние снежного покрова и степень покрытия местности в баллах.